Home   Weather   Sierra Vista   Past weeks

Flag for USA Past Weather in Sierra Vista, Arizona, USA — Yesterday and Last 2 Weeks

Now
61 °F

Sunny.


Feels Like: 61 °F
Forecast: 53 / 79 °F
Wind: 9 mph from West

Location: Fort Huachuca

Current Time: Apr 26, 2017 at 9:13:56 am

Latest Report: Apr 26, 2017 at 7:58 am


Visibility: 10 mi

Pressure: 29.82 "Hg (25.30 "Hg at 1390m altitude)

Humidity: 25%

Dew Point: 25 °F

Location of Sierra VistaLocation

Past Weather in Sierra Vista — Graph

°F

Sierra Vista Temperature Yesterday

Maximum temperature yesterday: 75 °F (at 12:25 pm)
Minimum temperature yesterday: 59 °F (at 11:58 pm)
Average temperature yesterday: 67 °F

High & Low Weather Summary for the Past Weeks

 TemperatureHumidityPressure
High90 °F (Apr 23, 1:19 pm)43% (Apr 25, 7:30 pm)30.19 "Hg (Apr 25, 7:30 pm)
Low49 °F (Apr 15, 3:58 am)3% (Apr 21, 12:32 pm)29.55 "Hg (Apr 25, 4:19 am)
Average71 °F14%29.87 "Hg
* Reported Apr 11 7:58 am — Apr 26 7:58 am, Sierra Vista, Weather by CustomWeather, © 2017

Note: Actual official high and low records may vary slightly from our data, if they occured in-between our weather recording intervals... More about our weather records

Advertising

Sierra Vista Weather History for the Previous 24 Hours

Scroll right to see more
 ConditionsComfort  
Time TempWeatherWind HumidityBarometerVisibility
7:58 am
Wed, Apr 26
61 °FSunny.9 mph25%29.82 "Hg10 mi
6:58 am57 °FSunny.7 mph31%29.81 "Hg9 mi
5:58 am53 °FSunny.9 mph36%29.80 "Hg10 mi
4:58 am52 °FClear.12 mph39%29.78 "Hg10 mi
3:58 am54 °FClear.9 mph37%29.77 "Hg10 mi
2:58 am56 °FClear.8 mph35%29.75 "Hg10 mi
1:58 am58 °FClear.16 mph35%29.72 "Hg10 mi
12:58 am58 °FClear.15 mph38%29.76 "Hg10 mi
12:22 am59 °FClear.12 mph36%29.76 "Hg10 mi
11:58 pm
Tue, Apr 25
59 °FClear.15 mph37%29.74 "Hg10 mi
10:58 pm60 °FClear.18 mph36%29.74 "Hg10 mi
9:58 pm62 °FClear.21 mph34%29.72 "Hg10 mi
9:26 pm61 °FClear.16 mph36%29.72 "Hg10 mi
8:58 pm62 °FClear.17 mph41%29.70 "Hg10 mi
7:58 pm64 °FClear.18 mph43%29.67 "Hg10 mi
7:30 pm64 °FClear.23 mph43%29.67 "Hg10 mi
6:58 pm66 °FClear.18 mph38%29.64 "Hg10 mi
5:58 pm69 °FSunny.22 mph32%29.64 "Hg10 mi
4:58 pm71 °FSunny.23 mph27%29.61 "Hg10 mi
3:58 pm72 °FSunny.28 mph25%29.61 "Hg10 mi
2:58 pm74 °FSunny.26 mph24%29.63 "Hg10 mi
1:58 pm75 °FSunny.26 mph22%29.62 "Hg10 mi
1:17 pm75 °FPassing clouds.20 mph21%29.60 "Hg10 mi
12:58 pm75 °FPassing clouds.24 mph20%29.62 "Hg10 mi
12:25 pm75 °FSunny.28 mph21%29.62 "Hg9 mi
11:58 am74 °FPassing clouds.24 mph20%29.64 "Hg10 mi
10:58 am72 °FSunny.14 mph19%29.64 "Hg10 mi
9:58 am71 °FSunny.24 mph19%29.65 "Hg10 mi
9:20 am68 °FSunny.23 mph18%29.65 "Hg10 mi
Weather by CustomWeather, © 2017

See weather overviewHow to use our weather pages